Location: ??????????
(42.1626°N, 44.1160°E)
Time: 03:48:58
(UTC+00:00)

FENGYUN 1C DEB - Pass Details

Date: 29 September 2021
Orbit: 836 x 1129 km, 99.1° (Epoch: 18 October)

Event Time Altitude Azimuth Distance (km) Brightness Sun altitude
Exits shadow 22:27:18 11° 10° (N) 2,396 ? -45.4°
Drops below altitude 10° 22:27:28 10° 9° (N) 2,449 ? -45.4°
Sets 22:30:10 0° 357° (N) 3,396 ? -45.1°
